CW3518 Weather Reports


Display with metric or nautical units.
time (UTC)temp
F
wind
direction
speed
MPH
gust
MPH
rain 1hr
in
rain 24hr
in
rain mn
in
humidity
%
barometer
mb
20260902042026 87 57 3.0 4.0 0.00 0.00 0.00 53 1015.1
20260902040956 87 95 3.0 5.0 0.00 0.00 0.00 53 1015.0
20260902040526 87 90 3.0 5.0 0.00 0.00 0.00 52 1015.0
20260902040026 87 107 5.0 7.0 0.00 0.00 0.00 52 1015.0
20260902035526 88 82 3.0 8.0 0.00 0.00 0.00 51 1015.0
20260902035026 88 120 7.0 8.0 0.00 0.00 0.00 50 1015.0
20260902034526 89 123 6.0 7.0 0.00 0.00 0.00 50 1015.0
20260902034026 89 126 6.0 7.0 0.00 0.00 0.00 50 1015.1
20260902033026 89 145 4.0 4.0 0.00 0.00 0.00 50 1015.0
20260902032525 89 167 4.0 4.0 0.00 0.00 0.00 50 1015.0
20260902031956 89 171 3.0 4.0 0.00 0.00 0.00 50 1015.0
20260902031455 89 179 3.0 4.0 0.00 0.00 0.00 49 1014.9
20260902030955 89 189 3.0 4.0 0.00 0.00 0.00 49 1014.9
20260902030456 88 197 3.0 3.0 0.00 0.00 0.00 49 1014.8
20260902030025 89 199 3.0 4.0 0.00 0.00 0.00 49 1014.8
20260902025526 89 168 3.0 4.0 0.00 0.00 0.00 49 1014.7
20260902025025 89 170 3.0 5.0 0.00 0.00 0.00 49 1014.6
20260902024526 89 131 4.0 5.0 0.00 0.00 0.00 49 1014.5
20260902024028 89 128 5.0 5.0 0.00 0.00 0.00 49 1014.4
20260902023525 89 147 5.0 5.0 0.00 0.00 0.00 49 1014.4
20260902022955 88 156 5.0 5.0 0.00 0.00 0.00 49 1014.3
20260902022525 88 174 3.0 6.0 0.00 0.00 0.00 50 1014.2
20260902022025 88 141 5.0 6.0 0.00 0.00 0.00 49 1014.1
20260902021525 89 131 5.0 6.0 0.00 0.00 0.00 49 1014.1
20260902021025 89 127 6.0 7.0 0.00 0.00 0.00 48 1014.0
20260902020455 89 132 5.0 7.0 0.00 0.00 0.00 48 1013.9
20260902020025 89 140 5.0 7.0 0.00 0.00 0.00 48 1013.7
20260902015456 89 126 6.0 8.0 0.00 0.00 0.00 47 1013.6
20260902015026 89 128 6.0 9.0 0.00 0.00 0.00 47 1013.5
20260902013955 91 131 8.0 9.0 0.00 0.00 0.00 45 1013.4
20260902012954 91 135 8.0 10.0 0.00 0.00 0.00 44 1013.2
20260902012524 91 137 8.0 8.0 0.00 0.00 0.00 43 1013.3
20260902012024 92 131 7.0 8.0 0.00 0.00 0.00 42 1013.3
20260902011524 92 133 5.0 5.0 0.00 0.00 0.00 42 1013.2
20260902011024 92 122 5.0 6.0 0.00 0.00 0.00 42 1013.2
20260902010524 93 124 4.0 6.0 0.00 0.00 0.00 41 1013.2
20260902010024 93 122 5.0 6.0 0.00 0.00 0.00 41 1013.2
20260902005524 93 129 4.0 7.0 0.00 0.00 0.00 40 1013.2
20260902005024 94 137 5.0 9.0 0.00 0.00 0.00 40 1013.2
20260902004524 94 139 6.0 9.0 0.00 0.00 0.00 40 1013.2
20260902004024 94 124 6.0 9.0 0.00 0.00 0.00 39 1013.2
20260902003524 95 135 6.0 10.0 0.00 0.00 0.00 39 1013.2
20260902003024 95 145 7.0 10.0 0.00 0.00 0.00 39 1013.3
20260902002524 95 126 8.0 12.0 0.00 0.00 0.00 38 1013.3
20260902001954 96 144 7.0 12.0 0.00 0.00 0.00 37 1013.4
20260902001525 96 155 9.0 11.0 0.00 0.00 0.00 36 1013.4
20260902001024 96 135 9.0 13.0 0.00 0.00 0.00 36 1013.4
20260902000453 96 149 9.0 13.0 0.00 0.00 0.00 36 1013.5
20260902000024 96 126 9.0 13.0 0.00 0.00 0.00 37 1013.4
20260901235524 96 131 12.0 15.0 0.00 0.00 0.00 36 1013.4
20260901234953 96 134 11.0 15.0 0.00 0.00 0.00 36 1013.5
20260901234523 97 135 13.0 15.0 0.00 0.00 0.00 35 1013.5
20260901234023 96 131 10.0 17.0 0.00 0.00 0.00 35 1013.5
20260901233023 97 120 12.0 16.0 0.00 0.00 0.00 35 1013.6
20260901232454 97 148 9.0 14.0 0.00 0.00 0.00 34 1013.7
20260901232024 97 101 9.0 15.0 0.00 0.00 0.00 35 1013.7
20260901231523 97 110 10.0 15.0 0.00 0.00 0.00 34 1013.6
20260901231023 97 108 11.0 15.0 0.00 0.00 0.00 34 1013.7
20260901230023 97 98 7.0 15.0 0.00 0.00 0.00 34 1013.7
20260901225523 97 127 9.0 15.0 0.00 0.00 0.00 34 1013.7
20260901225023 97 102 10.0 13.0 0.00 0.00 0.00 34 1013.7
20260901224523 98 105 12.0 13.0 0.00 0.00 0.00 34 1013.7
20260901224023 98 152 7.0 19.0 0.00 0.00 0.00 34 1013.7
20260901223023 97 92 11.0 18.0 0.00 0.00 0.00 34 1013.7
20260901222523 98 138 10.0 18.0 0.00 0.00 0.00 34 1013.7
20260901221523 97 117 10.0 12.0 0.00 0.00 0.00 34 1013.9
20260901220523 97 120 9.0 17.0 0.00 0.00 0.00 34 1013.9
20260901220022 98 152 11.0 18.0 0.00 0.00 0.00 33 1013.9
20260901215523 97 99 9.0 18.0 0.00 0.00 0.00 34 1014.0
20260901215022 98 176 12.0 14.0 0.00 0.00 0.00 34 1014.0
20260901214022 97 132 8.0 15.0 0.00 0.00 0.00 35 1014.2
20260901213522 98 137 10.0 15.0 0.00 0.00 0.00 35 1014.2
20260901213023 98 87 10.0 15.0 0.00 0.00 0.00 34 1014.1
20260901212525 97 156 12.0 16.0 0.00 0.00 0.00 35 1014.0
20260901212023 97 115 9.0 16.0 0.00 0.00 0.00 35 1014.2
20260901211522 97 104 8.0 16.0 0.00 0.00 0.00 35 1014.3
20260901210522 97 136 14.0 14.0 0.00 0.00 0.00 36 1014.3
20260901205525 97 171 7.0 11.0 0.00 0.00 0.00 37 1014.4
20260901205025 96 174 8.0 15.0 0.00 0.00 0.00 37 1014.5
20260901204524 96 173 8.0 15.0 0.00 0.00 0.00 38 1014.6
20260901203521 96 133 9.0 15.0 0.00 0.00 0.00 37 1014.7
20260901203025 97 94 8.0 12.0 0.00 0.00 0.00 37 1014.7
20260901202022 97 115 11.0 16.0 0.00 0.00 0.00 37 1014.8
20260901201523 96 192 9.0 19.0 0.00 0.00 0.00 38 1014.9
20260901200523 95 208 6.0 16.0 0.00 0.00 0.00 38 1015.1
20260901200021 96 128 7.0 16.0 0.00 0.00 0.00 38 1015.1
20260901195521 96 87 7.0 17.0 0.00 0.00 0.00 39 1015.1
20260901195021 95 99 17.0 18.0 0.00 0.00 0.00 39 1015.1
20260901194521 96 145 6.0 18.0 0.00 0.00 0.00 39 1015.2
20260901194020 97 123 16.0 18.0 0.00 0.00 0.00 38 1015.1
20260901193020 94 77 8.0 16.0 0.00 0.00 0.00 40 1015.3
20260901192520 94 99 9.0 16.0 0.00 0.00 0.00 40 1015.4
20260901191520 96 165 3.0 15.0 0.00 0.00 0.00 38 1015.5
20260901190520 95 150 7.0 13.0 0.00 0.00 0.00 38 1015.7
20260901190020 97 174 9.0 13.0 0.00 0.00 0.00 35 1015.7
20260901185520 96 140 7.0 12.0 0.00 0.00 0.00 38 1015.8
20260901185020 95 259 3.0 16.0 0.00 0.00 0.00 39 1015.8
20260901184520 95 172 13.0 16.0 0.00 0.00 0.00 38 1015.9
20260901184020 95 94 9.0 15.0 0.00 0.00 0.00 40 1016.1
20260901183520 96 127 15.0 15.0 0.00 0.00 0.00 40 1016.1
20260901183021 94 132 3.0 12.0 0.00 0.00 0.00 42 1016.3
20260901182520 94 93 7.0 15.0 0.00 0.00 0.00 41 1016.3
20260901182019 94 229 9.0 16.0 0.00 0.00 0.00 41 1016.3
20260901181519 94 148 10.0 16.0 0.00 0.00 0.00 42 1016.4
20260901180019 94 144 15.0 16.0 0.00 0.00 0.00 41 1016.6
20260901175520 95 121 11.0 15.0 0.00 0.00 0.00 41 1016.6
20260901175019 94 130 8.0 14.0 0.00 0.00 0.00 43 1016.8
20260901174519 94 155 9.0 14.0 0.00 0.00 0.00 44 1016.8
20260901174019 93 208 9.0 14.0 0.00 0.00 0.00 44 1016.9
20260901173519 94 124 9.0 14.0 0.00 0.00 0.00 43 1016.9
20260901173019 94 94 11.0 17.0 0.00 0.00 0.00 44 1017.0
20260901172519 93 152 3.0 17.0 0.00 0.00 0.00 45 1017.1
20260901171519 93 220 9.0 11.0 0.00 0.00 0.00 44 1017.2
20260901171019 93 226 5.0 13.0 0.00 0.00 0.00 45 1017.3
20260901170019 93 249 6.0 12.0 0.00 0.00 0.00 45 1017.4
20260901165519 94 153 9.0 10.0 0.00 0.00 0.00 45 1017.4
20260901165019 93 112 3.0 11.0 0.00 0.00 0.00 46 1017.4
20260901164519 93 102 9.0 11.0 0.00 0.00 0.00 46 1017.5
20260901164019 92 211 2.0 9.0 0.00 0.00 0.00 46 1017.5
20260901163519 91 144 7.0 12.0 0.00 0.00 0.00 48 1017.5
20260901162519 92 137 6.0 10.0 0.00 0.00 0.00 47 1017.6
20260901161519 91 213 8.0 14.0 0.00 0.00 0.00 48 1017.6
20260901161019 91 228 6.0 13.0 0.00 0.00 0.00 49 1017.7
20260901160519 91 187 8.0 13.0 0.00 0.00 0.00 49 1017.6
20260901160019 91 249 7.0 12.0 0.00 0.00 0.00 50 1017.6
20260901155519 90 169 4.0 12.0 0.00 0.00 0.00 50 1017.6
20260901155018 91 204 7.0 10.0 0.00 0.00 0.00 50 1017.6
20260901154548 90 207 8.0 10.0 0.00 0.00 0.00 51 1017.7
20260901154018 90 199 7.0 10.0 0.00 0.00 0.00 51 1017.6
20260901153518 90 192 4.0 10.0 0.00 0.00 0.00 52 1017.6
20260901153019 89 201 5.0 11.0 0.00 0.00 0.00 53 1017.5
20260901152518 89 160 6.0 11.0 0.00 0.00 0.00 53 1017.5
20260901152018 89 221 11.0 11.0 0.00 0.00 0.00 54 1017.5
20260901151518 89 138 6.0 10.0 0.00 0.00 0.00 55 1017.6
20260901151018 89 242 5.0 11.0 0.00 0.00 0.00 55 1017.6
20260901150518 88 289 2.0 11.0 0.00 0.00 0.00 56 1017.6
20260901150018 87 232 5.0 12.0 0.00 0.00 0.00 57 1017.6
20260901145518 87 225 9.0 12.0 0.00 0.00 0.00 57 1017.6
20260901145018 87 199 5.0 10.0 0.00 0.00 0.00 58 1017.7
20260901144518 87 220 9.0 10.0 0.00 0.00 0.00 57 1017.7
20260901144019 87 183 5.0 9.0 0.00 0.00 0.00 57 1017.7
20260901143518 87 223 6.0 9.0 0.00 0.00 0.00 58 1017.7
20260901143018 86 190 8.0 9.0 0.00 0.00 0.00 58 1017.7
20260901142018 85 233 6.0 8.0 0.00 0.00 0.00 59 1017.7
20260901141518 85 141 3.0 8.0 0.00 0.00 0.00 60 1017.7
20260901140518 85 227 8.0 9.0 0.00 0.00 0.00 60 1017.7
20260901140017 84 179 5.0 8.0 0.00 0.00 0.00 61 1017.6
20260901135518 84 224 3.0 7.0 0.00 0.00 0.00 61 1017.6
20260901135017 84 198 4.0 6.0 0.00 0.00 0.00 62 1017.6
20260901134517 83 191 4.0 7.0 0.00 0.00 0.00 62 1017.6
20260901134017 82 165 3.0 7.0 0.00 0.00 0.00 63 1017.6
20260901133517 82 214 6.0 6.0 0.00 0.00 0.00 63 1017.5
20260901133018 82 191 4.0 6.0 0.00 0.00 0.00 64 1017.5
20260901132517 81 193 4.0 6.0 0.00 0.00 0.00 65 1017.5
20260901132017 81 176 5.0 6.0 0.00 0.00 0.00 66 1017.5
20260901131517 81 180 6.0 6.0 0.00 0.00 0.00 67 1017.5
20260901131017 80 193 5.0 5.0 0.00 0.00 0.00 68 1017.4
20260901130517 80 178 5.0 6.0 0.00 0.00 0.00 68 1017.5
20260901130017 79 131 4.0 6.0 0.00 0.00 0.00 69 1017.5
20260901125518 79 121 5.0 6.0 0.00 0.00 0.00 70 1017.4
20260901125017 78 128 5.0 5.0 0.00 0.00 0.00 70 1017.4
20260901124517 78 226 3.0 6.0 0.00 0.00 0.00 71 1017.3
20260901124017 78 146 3.0 6.0 0.00 0.00 0.00 71 1017.2
20260901123517 78 127 5.0 6.0 0.00 0.00 0.00 70 1017.2
20260901122517 78 166 4.0 6.0 0.00 0.00 0.00 70 1017.0
20260901122017 78 150 3.0 6.0 0.00 0.00 0.00 71 1016.9
20260901121017 77 99 5.0 6.0 0.00 0.00 0.00 72 1016.9
20260901120517 77 81 5.0 6.0 0.00 0.00 0.00 72 1016.9
20260901120016 78 73 5.0 5.0 0.00 0.00 0.00 69 1016.9
20260901115017 78 130 4.0 6.0 0.00 0.00 0.00 69 1016.8
20260901114016 78 251 6.0 7.0 0.00 0.00 0.00 69 1016.6
20260901113516 78 255 6.0 7.0 0.00 0.00 0.00 70 1016.6
20260901113016 78 252 5.0 7.0 0.00 0.00 0.00 70 1016.5
20260901112516 78 240 6.0 9.0 0.00 0.00 0.00 71 1016.5
20260901112016 78 241 5.0 9.0 0.00 0.00 0.00 70 1016.5
20260901111516 78 248 7.0 9.0 0.00 0.00 0.00 70 1016.4
20260901110516 79 247 8.0 8.0 0.00 0.00 0.00 69 1016.5
20260901105516 79 241 5.0 7.0 0.00 0.00 0.00 68 1016.5
20260901105016 80 255 6.0 7.0 0.00 0.00 0.00 67 1016.5
20260901104516 80 256 6.0 7.0 0.00 0.00 0.00 67 1016.5
20260901104016 80 257 6.0 7.0 0.00 0.00 0.00 66 1016.5
20260901103515 80 247 6.0 7.0 0.00 0.00 0.00 66 1016.5
20260901103016 80 244 6.0 6.0 0.00 0.00 0.00 65 1016.4
20260901102515 80 234 6.0 7.0 0.00 0.00 0.00 64 1016.5
20260901102015 80 212 6.0 7.0 0.00 0.00 0.00 64 1016.5
20260901101515 80 210 7.0 7.0 0.00 0.00 0.00 63 1016.5
20260901101015 80 206 6.0 7.0 0.00 0.00 0.00 63 1016.5
20260901100515 80 205 6.0 6.0 0.00 0.00 0.00 63 1016.5
20260901095515 80 199 5.0 6.0 0.00 0.00 0.00 63 1016.5
20260901095015 80 193 5.0 7.0 0.00 0.00 0.00 62 1016.5
20260901094515 80 178 6.0 7.0 0.00 0.00 0.00 62 1016.5
20260901094015 80 197 5.0 5.0 0.00 0.00 0.00 62 1016.6
20260901093515 80 177 4.0 6.0 0.00 0.00 0.00 63 1016.6
20260901092515 80 170 6.0 7.0 0.00 0.00 0.00 62 1016.6
20260901092015 80 151 5.0 7.0 0.00 0.00 0.00 62 1016.6
20260901091514 80 166 6.0 8.0 0.00 0.00 0.00 61 1016.6
20260901091014 81 143 5.0 9.0 0.00 0.00 0.00 61 1016.5
20260901085514 81 143 7.0 9.0 0.00 0.00 0.00 60 1016.5
20260901085015 81 144 7.0 8.0 0.00 0.00 0.00 60 1016.5
20260901084514 81 133 6.0 7.0 0.00 0.00 0.00 60 1016.4
20260901084014 81 144 7.0 8.0 0.00 0.00 0.00 59 1016.4
20260901083515 81 137 5.0 8.0 0.00 0.00 0.00 59 1016.4
20260901083014 81 140 7.0 7.0 0.00 0.00 0.00 59 1016.4
20260901082515 81 129 6.0 8.0 0.00 0.00 0.00 59 1016.3
20260901082015 81 136 7.0 8.0 0.00 0.00 0.00 59 1016.2
20260901081514 82 129 7.0 8.0 0.00 0.00 0.00 59 1016.2
20260901081014 82 129 8.0 8.0 0.00 0.00 0.00 58 1016.1
20260901080514 82 123 6.0 7.0 0.00 0.00 0.00 58 1016.1
20260901080014 82 119 6.0 7.0 0.00 0.00 0.00 58 1016.1
20260901075514 82 125 7.0 7.0 0.00 0.00 0.00 58 1016.1
20260901075015 81 115 5.0 7.0 0.00 0.00 0.00 58 1016.1
20260901074014 80 78 4.0 5.0 0.00 0.00 0.00 58 1016.1
20260901073514 81 71 4.0 7.0 0.00 0.00 0.00 57 1016.1
20260901072013 82 101 5.0 6.0 0.00 0.00 0.00 56 1016.2
20260901071514 81 96 5.0 6.0 0.00 0.00 0.00 57 1016.2
20260901070513 81 84 5.0 7.0 0.00 0.00 0.00 56 1016.1
20260901070013 81 81 6.0 7.0 0.00 0.00 0.00 55 1016.1
20260901065513 82 79 5.0 8.0 0.00 0.00 0.00 54 1016.1
20260901064513 82 95 6.0 7.0 0.00 0.00 0.00 53 1016.0
20260901064013 83 105 5.0 6.0 0.00 0.00 0.00 52 1016.0
20260901063514 83 103 5.0 5.0 0.00 0.00 0.00 53 1016.0
20260901063013 82 102 5.0 8.0 0.00 0.00 0.00 53 1016.0
20260901062514 81 76 3.0 10.0 0.00 0.00 0.00 53 1016.0
20260901062014 82 56 6.0 10.0 0.00 0.00 0.00 52 1016.1
20260901061013 83 35 5.0 6.0 0.00 0.00 0.00 49 1015.8
20260901060513 83 29 5.0 6.0 0.00 0.00 0.00 48 1015.7
20260901060013 83 33 5.0 6.0 0.00 0.00 0.00 48 1015.7
20260901055513 83 37 5.0 7.0 0.00 0.00 0.00 47 1015.7
20260901055013 83 36 5.0 12.0 0.00 0.00 0.00 48 1015.7
20260901054513 83 62 7.0 12.0 0.00 0.00 0.00 47 1015.7
20260901054013 85 74 8.0 8.0 0.00 0.00 0.00 45 1015.6
20260901053513 86 200 3.0 4.0 0.00 0.00 0.00 44 1015.5
20260901053013 86 191 3.0 4.0 0.00 0.00 0.00 44 1015.4
20260901052513 86 183 4.0 4.0 0.00 0.00 0.00 43 1015.4
20260901052013 86 180 4.0 5.0 0.00 0.00 0.00 43 1015.3
20260901051513 86 185 4.0 5.0 0.00 0.00 0.00 43 1015.3
20260901051013 86 164 5.0 6.0 0.00 0.00 0.00 43 1015.3
20260901050513 86 163 5.0 6.0 0.00 0.00 0.00 42 1015.3
20260901050013 86 169 5.0 7.0 0.00 0.00 0.00 42 1015.3
20260901045513 87 165 6.0 7.0 0.00 0.00 0.00 42 1015.3
20260901045013 87 164 6.0 7.0 0.00 0.00 0.00 42 1015.3
20260901044012 87 164 6.0 7.0 0.00 0.00 0.00 42 1015.2
20260901043513 87 145 6.0 6.0 0.00 0.00 0.00 42 1015.1
20260901043012 87 135 5.0 6.0 0.00 0.00 0.00 42 1015.1